Location: Widewater Village at Stafford
(38.4893°N, 77.3783°W)
Time: 02:04:54
(UTC+00:00)

Tiangong - Pass Details

Date: 06 December 2022
Orbit: 383 x 386 km, 41.5° (Epoch: 03 February)

Event Time Altitude Azimuth Distance (km) Brightness Sun altitude
Rises 22:17:53 0° 276° (W) 2,250 2.9 -6.0°
Reaches altitude 10° 22:20:00 10° 282° (WNW) 1,398 1.6 -6.4°
Maximum altitude 22:23:04 46° 358° (N) 524 -1.6 -6.9°
Drops below altitude 10° 22:26:07 10° 73° (ENE) 1,401 0.0 -7.5°
Enters shadow 22:26:09 10° 73° (ENE) 1,414 0.0 -7.5°
